INTELSAT 10 (IS-10)

Last updated on Fri Dec 12 2025 00:02:46 GMT+0000 (Coordinated Universal Time)

1 26766U 01019A 25345.59144833 -.00000286 00000+0 00000+0 0 9999 2 26766 8.6274 61.1692 0007785 224.4537 151.5540 0.99078808 43721
UTC large
Height (km)
Speed (km/s)
/
Latitude / Longitude
Inclination (degrees)
Orbital Period (minutes)
Azimuth
Elevation
Range (km)
Doppler Factor

Next 0 passes for location: London (51.5072 / 0.1276)

Sorry there are no passes over London.